Station Historical Data
Daily Summary for April 30, 2017 Units:  Metric    English   Both
« Previous Day
Next Day »
Daily Weekly Monthly Yearly Custom
  High: Low: Average:
Temperature: 18.1 °C 3.7 °C 8.8 °C
Dew Point: 11.1 °C -0.7 °C 4.4 °C
Humidity: 91% 62% 74%
Wind Speed: 20.9km/h 0km/h 9.3km/h
Wind Gust: 40.2km/h - -
Wind- - ENE
Pressure: 1026.6 hPa 1011.1 hPa -
Precipitation: 20.57 mm    
Historical Graphs
 
 
Tabular Data for April 30, 2017
Time Temperature Dew Point Pressure Wind Wind Speed Wind Gust Humidity Rainfall Rate (Hourly)
00:00 6.8 °C 0.7 °C 1024.3 hPa NNE 1.6 km/h 4.8 km/h 65% 0 mm
00:05 6.8 °C 0.7 °C 1024.6 hPa Calm   4.8 km/h 65% 0 mm
00:10 6.7 °C 0.6 °C 1024.6 hPa NNE 3.2 km/h 4.8 km/h 65% 0 mm
00:15 6.7 °C 0.8 °C 1024.6 hPa NNE 1.6 km/h 8 km/h 66% 0 mm
00:20 6.7 °C 0.8 °C 1024.3 hPa Calm   4.8 km/h 66% 0 mm
00:25 6.7 °C 0.6 °C 1024.3 hPa NE 3.2 km/h 4.8 km/h 65% 0 mm
00:30 6.7 °C 0.6 °C 1024.6 hPa NE 4.8 km/h 6.4 km/h 65% 0 mm
00:35 6.7 °C 0.4 °C 1024.6 hPa NE 3.2 km/h 8 km/h 64% 0 mm
00:40 6.7 °C 0.6 °C 1024.6 hPa NE 3.2 km/h 8 km/h 65% 0 mm
00:45 6.6 °C 0.5 °C 1024.6 hPa NE 1.6 km/h 6.4 km/h 65% 0 mm
00:50 6.6 °C 0.7 °C 1024.3 hPa NE 1.6 km/h 6.4 km/h 66% 0 mm
00:55 6.5 °C 0.4 °C 1024.3 hPa NE 3.2 km/h 11.3 km/h 65% 0 mm
01:00 6.6 °C 0.4 °C 1024.3 hPa NE 3.2 km/h 8 km/h 65% 0 mm
01:05 6.5 °C 0.6 °C 1024.3 hPa NE 3.2 km/h 8 km/h 66% 0 mm
01:10 6.4 °C 0.5 °C 1024.3 hPa NE 3.2 km/h 8 km/h 66% 0 mm
01:15 6.3 °C 0.7 °C 1024.3 hPa NE 3.2 km/h 6.4 km/h 67% 0 mm
01:20 6.3 °C 0.6 °C 1024.3 hPa NE 3.2 km/h 6.4 km/h 67% 0 mm
01:25 6.2 °C 0.5 °C 1024.3 hPa NE 1.6 km/h 4.8 km/h 67% 0 mm
01:30 6.2 °C 0.5 °C 1024.3 hPa NE 3.2 km/h 6.4 km/h 67% 0 mm
01:35 6.2 °C 0.5 °C 1024.3 hPa NE 3.2 km/h 6.4 km/h 67% 0 mm
01:40 6.2 °C 0.5 °C 1023.9 hPa NE 3.2 km/h 6.4 km/h 67% 0 mm
01:45 6.2 °C 0.6 °C 1023.6 hPa NE 4.8 km/h 8 km/h 67% 0 mm
01:50 6.2 °C 0.5 °C 1023.6 hPa NE 4.8 km/h 9.7 km/h 67% 0 mm
01:55 6.2 °C 0.7 °C 1023.6 hPa NE 4.8 km/h 9.7 km/h 68% 0 mm
02:00 6.1 °C 0.7 °C 1023.2 hPa ENE 6.4 km/h 9.7 km/h 68% 0 mm
02:05 6.1 °C 0.7 °C 1023.2 hPa NE 8 km/h 11.3 km/h 68% 0 mm
02:10 6.1 °C 0.7 °C 1022.9 hPa NE 6.4 km/h 11.3 km/h 68% 0 mm
02:15 6.1 °C 0.6 °C 1022.9 hPa NE 4.8 km/h 11.3 km/h 68% 0 mm
02:20 6.1 °C 0.4 °C 1022.9 hPa NE 4.8 km/h 11.3 km/h 67% 0 mm
02:25 6.1 °C 0.4 °C 1022.9 hPa ENE 6.4 km/h 12.9 km/h 67% 0 mm
02:30 6.1 °C 0.4 °C 1023.2 hPa ENE 4.8 km/h 9.7 km/h 67% 0 mm
02:35 6.1 °C 0.4 °C 1022.9 hPa NE 4.8 km/h 11.3 km/h 67% 0 mm
02:40 6 °C 0.6 °C 1022.9 hPa NE 4.8 km/h 11.3 km/h 68% 0 mm
02:45 6 °C 0.3 °C 1022.9 hPa NE 4.8 km/h 9.7 km/h 67% 0 mm
02:50 6 °C 0.3 °C 1022.9 hPa NE 4.8 km/h 11.3 km/h 67% 0 mm
02:55 5.9 °C 0.5 °C 1022.6 hPa NE 4.8 km/h 11.3 km/h 68% 0 mm
03:00 6 °C 0.6 °C 1022.6 hPa ENE 4.8 km/h 9.7 km/h 68% 0 mm
03:05 6 °C 0.6 °C 1022.6 hPa NE 4.8 km/h 11.3 km/h 68% 0 mm
03:10 6.1 °C 0.6 °C 1022.2 hPa NE 9.7 km/h 14.5 km/h 68% 0 mm
03:15 6.1 °C 0.8 °C 1022.2 hPa NE 4.8 km/h 14.5 km/h 69% 0 mm
03:20 6.1 °C 0.6 °C 1022.2 hPa NE 4.8 km/h 14.5 km/h 68% 0 mm
03:25 6.1 °C 0.7 °C 1022.2 hPa ENE 11.3 km/h 16.1 km/h 68% 0 mm
03:30 6.1 °C 0.8 °C 1022.6 hPa NE 9.7 km/h 14.5 km/h 69% 0 mm
03:35 6.1 °C 0.8 °C 1022.2 hPa NE 8 km/h 14.5 km/h 69% 0 mm
03:40 6.1 °C 0.8 °C 1022.2 hPa NE 8 km/h 16.1 km/h 69% 0 mm
03:45 6.2 °C 0.9 °C 1021.9 hPa NE 9.7 km/h 19.3 km/h 69% 0 mm
03:50 6.2 °C 0.9 °C 1021.9 hPa NE 11.3 km/h 19.3 km/h 69% 0 mm
03:55 6.2 °C 0.9 °C 1021.9 hPa NE 11.3 km/h 25.7 km/h 69% 0 mm
04:00 6.3 °C 1 °C 1021.9 hPa NE 11.3 km/h 25.7 km/h 69% 0 mm
04:05 6.3 °C 1.1 °C 1021.9 hPa NE 8 km/h 16.1 km/h 69% 0 mm
04:10 6.4 °C 0.9 °C 1021.6 hPa North 3.2 km/h 20.9 km/h 68% 0 mm
04:15 6.4 °C 0.9 °C 1021.6 hPa East 14.5 km/h 24.1 km/h 68% 0 mm
04:20 6.4 °C 0.9 °C 1021.9 hPa NE 1.6 km/h 17.7 km/h 68% 0 mm
04:25 6.4 °C 0.8 °C 1021.6 hPa NE 8 km/h 22.5 km/h 67% 0 mm
04:30 6.5 °C 0.8 °C 1021.2 hPa ENE 11.3 km/h 22.5 km/h 67% 0 mm
04:35 6.4 °C 0.8 °C 1021.2 hPa ENE 12.9 km/h 29 km/h 67% 0 mm
04:40 6.4 °C 0.7 °C 1021.6 hPa ENE 12.9 km/h 29 km/h 67% 0 mm
04:45 6.4 °C 0.7 °C 1021.6 hPa ENE 11.3 km/h 29 km/h 67% 0 mm
04:50 6.4 °C 0.7 °C 1021.6 hPa ENE 9.7 km/h 24.1 km/h 67% 0 mm
04:55 6.3 °C 0.7 °C 1021.6 hPa NE 8 km/h 25.7 km/h 67% 0 mm
05:00 6.3 °C 0.6 °C 1021.6 hPa ENE 12.9 km/h 25.7 km/h 67% 0 mm
05:05 6.2 °C 0.3 °C 1021.9 hPa East 17.7 km/h 22.5 km/h 66% 0 mm
05:10 6.2 °C 0.1 °C 1022.2 hPa East 14.5 km/h 27.4 km/h 65% 0 mm
05:15 6.2 °C 0.1 °C 1022.2 hPa East 12.9 km/h 27.4 km/h 65% 0 mm
05:20 6.2 °C -0.2 °C 1022.6 hPa East 12.9 km/h 29 km/h 64% 0 mm
05:25 6.2 °C -0.1 °C 1022.2 hPa East 16.1 km/h 20.9 km/h 64% 0 mm
05:30 6.2 °C -0.2 °C 1022.2 hPa ENE 11.3 km/h 24.1 km/h 64% 0 mm
05:35 6.2 °C -0.2 °C 1022.2 hPa ENE 11.3 km/h 24.1 km/h 64% 0 mm
05:40 6.2 °C -0.2 °C 1022.2 hPa ENE 9.7 km/h 22.5 km/h 64% 0 mm
05:45 6.2 °C -0.2 °C 1022.6 hPa East 11.3 km/h 24.1 km/h 64% 0 mm
05:50 6.2 °C -0.2 °C 1022.2 hPa ESE 12.9 km/h 24.1 km/h 64% 0 mm
05:55 6.2 °C -0.2 °C 1022.6 hPa ENE 17.7 km/h 24.1 km/h 64% 0 mm
06:00 6.1 °C -0.2 °C 1022.6 hPa ENE 11.3 km/h 24.1 km/h 64% 0 mm
06:05 6.1 °C -0.2 °C 1022.6 hPa ENE 11.3 km/h 24.1 km/h 64% 0 mm
06:10 6 °C -0.3 °C 1022.2 hPa ENE 9.7 km/h 22.5 km/h 64% 0 mm
06:15 6 °C -0.5 °C 1022.2 hPa ENE 11.3 km/h 30.6 km/h 63% 0 mm
06:20 6 °C -0.5 °C 1022.2 hPa NE 17.7 km/h 24.1 km/h 63% 0 mm
06:25 5.9 °C -0.6 °C 1021.9 hPa ENE 12.9 km/h 24.1 km/h 63% 0 mm
06:30 5.9 °C -0.6 °C 1021.9 hPa ENE 12.9 km/h 24.1 km/h 63% 0 mm
06:35 5.8 °C -0.7 °C 1021.2 hPa ENE 12.9 km/h 29 km/h 63% 0 mm
06:40 5.8 °C -0.7 °C 1021.6 hPa East 12.9 km/h 24.1 km/h 63% 0 mm
06:45 5.8 °C -0.5 °C 1021.6 hPa NE 11.3 km/h 27.4 km/h 64% 0 mm
06:50 5.8 °C -0.4 °C 1021.9 hPa ESE 6.4 km/h 27.4 km/h 64% 0 mm
06:55 5.9 °C -0.4 °C 1023.9 hPa NE 11.3 km/h 27.4 km/h 64% 0 mm
07:00 6 °C -0.3 °C 1024.6 hPa North 6.4 km/h 14.5 km/h 64% 0 mm
07:05 6.1 °C 0.2 °C 1026.6 hPa NNW 8 km/h 24.1 km/h 66% 0 mm
07:10 5.7 °C 0.6 °C 1024.6 hPa NNE 4.8 km/h 17.7 km/h 70% 0.25 mm
07:15 5.3 °C 0.8 °C 1024.6 hPa NNE 8 km/h 12.9 km/h 73% 0.51 mm
07:20 4.9 °C 0.9 °C 1023.9 hPa NNE 6.4 km/h 14.5 km/h 75% 0.51 mm
07:25 4.7 °C 0.8 °C 1023.2 hPa NE 9.7 km/h 29 km/h 76% 0.51 mm
07:30 4.6 °C 0.7 °C 1022.6 hPa NE 12.9 km/h 32.2 km/h 76% 0.51 mm
07:35 4.6 °C 0.7 °C 1022.9 hPa NE 16.1 km/h 32.2 km/h 76% 0.51 mm
07:40 4.6 °C 0.9 °C 1022.6 hPa ENE 20.9 km/h 32.2 km/h 77% 0.51 mm
07:45 4.8 °C 1.1 °C 1022.6 hPa NE 11.3 km/h 33.8 km/h 77% 0.51 mm
07:50 4.9 °C 1.2 °C 1022.2 hPa NE 11.3 km/h 30.6 km/h 77% 0.51 mm
07:55 5.1 °C 1.2 °C 1021.9 hPa NE 16.1 km/h 35.4 km/h 76% 0.51 mm
08:00 4.9 °C 0.9 °C 1021.9 hPa NE 19.3 km/h 37 km/h 75% 0.51 mm
08:05 4.9 °C 0.9 °C 1021.9 hPa ENE 16.1 km/h 30.6 km/h 75% 0.51 mm
08:10 4.9 °C 0.7 °C 1021.9 hPa ENE 17.7 km/h 40.2 km/h 74% 0.25 mm
08:15 4.8 °C 0.8 °C 1022.6 hPa NE 20.9 km/h 32.2 km/h 75% 0 mm
08:20 4.8 °C 0.7 °C 1022.2 hPa ENE 16.1 km/h 32.2 km/h 75% 0.25 mm
08:25 4.6 °C 0.7 °C 1021.6 hPa ENE 14.5 km/h 30.6 km/h 76% 0.76 mm
08:30 4.4 °C 0.9 °C 1020.9 hPa East 14.5 km/h 30.6 km/h 78% 1.52 mm
08:35 4.2 °C 1 °C 1021.6 hPa ENE 14.5 km/h 29 km/h 80% 2.54 mm
08:40 3.9 °C 1 °C 1021.9 hPa ENE 12.9 km/h 27.4 km/h 81% 4.57 mm
08:45 3.8 °C 1 °C 1022.2 hPa ENE 12.9 km/h 27.4 km/h 82% 5.08 mm
08:50 3.8 °C 1.2 °C 1022.6 hPa ENE 11.3 km/h 20.9 km/h 83% 5.84 mm
08:55 3.8 °C 1.3 °C 1022.2 hPa East 11.3 km/h 24.1 km/h 84% 7.11 mm
09:00 3.7 °C 1.3 °C 1021.9 hPa SE 3.2 km/h 24.1 km/h 84% 8.64 mm
09:05 3.7 °C 1.2 °C 1021.9 hPa East 14.5 km/h 27.4 km/h 84% 9.91 mm
09:10 3.7 °C 1.4 °C 1022.2 hPa NNE 6.4 km/h 22.5 km/h 85% 10.41 mm
09:15 3.7 °C 1.4 °C 1022.6 hPa East 17.7 km/h 25.7 km/h 85% 10.67 mm
09:20 3.7 °C 1.4 °C 1022.9 hPa ENE 9.7 km/h 25.7 km/h 85% 10.92 mm
09:25 3.8 °C 1.5 °C 1022.9 hPa ENE 8 km/h 17.7 km/h 85% 10.16 mm
09:30 3.8 °C 1.6 °C 1022.2 hPa ENE 8 km/h 17.7 km/h 85% 9.4 mm
09:35 3.9 °C 1.4 °C 1021.9 hPa ENE 9.7 km/h 22.5 km/h 84% 8.64 mm
09:40 3.9 °C 1.4 °C 1021.6 hPa ENE 9.7 km/h 22.5 km/h 84% 6.35 mm
09:45 4 °C 1.7 °C 1021.6 hPa ENE 9.7 km/h 22.5 km/h 85% 6.1 mm
09:50 4.1 °C 1.7 °C 1021.2 hPa ESE 8 km/h 24.1 km/h 84% 5.33 mm
09:55 4.2 °C 1.8 °C 1021.2 hPa NE 8 km/h 22.5 km/h 84% 4.06 mm
10:00 4.3 °C 1.9 °C 1021.2 hPa ESE 1.6 km/h 19.3 km/h 84% 2.54 mm
10:05 4.4 °C 2 °C 1021.2 hPa ENE 12.9 km/h 12.9 km/h 84% 1.27 mm
10:10 4.6 °C 2.1 °C 1021.2 hPa East 4.8 km/h 19.3 km/h 84% 0.76 mm
10:15 4.8 °C 2.3 °C 1020.9 hPa ENE 8 km/h 19.3 km/h 84% 0.51 mm
10:20 4.8 °C 2.3 °C 1020.9 hPa East 9.7 km/h 17.7 km/h 84% 0 mm
10:25 4.9 °C 2.3 °C 1020.5 hPa East 8 km/h 17.7 km/h 83% 0 mm
10:30 5.1 °C 2.4 °C 1020.5 hPa ENE 4.8 km/h 16.1 km/h 83% 0 mm
10:35 5.3 °C 2.6 °C 1020.5 hPa East 8 km/h 20.9 km/h 83% 0 mm
10:40 5.5 °C 2.7 °C 1020.5 hPa ENE 9.7 km/h 20.9 km/h 82% 0 mm
10:45 5.8 °C 3 °C 1020.5 hPa NE 4.8 km/h 14.5 km/h 82% 0 mm
10:50 6.2 °C 3.2 °C 1020.2 hPa ENE 6.4 km/h 14.5 km/h 81% 0 mm
10:55 6.4 °C 3.4 °C 1019.9 hPa ENE 8 km/h 22.5 km/h 81% 0 mm
11:00 6.8 °C 3.4 °C 1019.9 hPa ENE 9.7 km/h 22.5 km/h 79% 0 mm
11:05 7.1 °C 3.7 °C 1019.9 hPa NE 3.2 km/h 19.3 km/h 79% 0 mm
11:10 7.3 °C 3.7 °C 1019.9 hPa ENE 6.4 km/h 17.7 km/h 78% 0 mm
11:15 7.6 °C 3.9 °C 1019.9 hPa ENE 4.8 km/h 19.3 km/h 78% 0 mm
11:20 7.8 °C 3.8 °C 1019.9 hPa ENE 9.7 km/h 22.5 km/h 76% 0 mm
11:25 7.9 °C 3.7 °C 1019.9 hPa NE 4.8 km/h 25.7 km/h 75% 0 mm
11:30 8.1 °C 3.9 °C 1019.9 hPa East 16.1 km/h 27.4 km/h 75% 0 mm
11:35 8.6 °C 4.2 °C 1019.5 hPa NE 8 km/h 27.4 km/h 74% 0 mm
11:40 9.4 °C 5 °C 1019.5 hPa NE 12.9 km/h 19.3 km/h 74% 0 mm
11:45 9.5 °C 4.5 °C 1019.5 hPa SE 14.5 km/h 20.9 km/h 71% 0 mm
11:50 9.4 °C 4.7 °C 1019.2 hPa ENE 11.3 km/h 30.6 km/h 72% 0 mm
11:55 9.4 °C 4.4 °C 1019.2 hPa ENE 14.5 km/h 35.4 km/h 71% 0 mm
12:00 10 °C 5 °C 1019.2 hPa ENE 14.5 km/h 35.4 km/h 71% 0 mm
12:05 10.2 °C 5.3 °C 1018.8 hPa ENE 16.1 km/h 35.4 km/h 72% 0 mm
12:10 10.2 °C 5 °C 1018.5 hPa ENE 17.7 km/h 35.4 km/h 70% 0 mm
12:15 10.1 °C 5.1 °C 1018.5 hPa ENE 16.1 km/h 30.6 km/h 71% 0 mm
12:20 10.2 °C 5.2 °C 1018.5 hPa ENE 16.1 km/h 30.6 km/h 71% 0 mm
12:25 10.5 °C 5.3 °C 1018.5 hPa East 11.3 km/h 27.4 km/h 70% 0 mm
12:30 10.9 °C 5.6 °C 1018.5 hPa East 16.1 km/h 29 km/h 70% 0 mm
12:35 11.1 °C 5.4 °C 1018.2 hPa NE 14.5 km/h 35.4 km/h 68% 0 mm
12:40 11 °C 5.5 °C 1017.8 hPa NE 9.7 km/h 30.6 km/h 69% 0 mm
12:45 11.1 °C 5.4 °C 1017.8 hPa NE 17.7 km/h 27.4 km/h 68% 0 mm
12:50 11.2 °C 5.7 °C 1017.8 hPa NE 16.1 km/h 32.2 km/h 69% 0 mm
12:55 11.2 °C 5.7 °C 1017.5 hPa NE 17.7 km/h 32.2 km/h 69% 0 mm
13:00 11.4 °C 5.9 °C 1017.5 hPa NE 16.1 km/h 29 km/h 69% 0 mm
13:05 11.7 °C 5.8 °C 1017.5 hPa NE 14.5 km/h 33.8 km/h 67% 0 mm
13:10 12 °C 6.5 °C 1017.5 hPa NE 11.3 km/h 32.2 km/h 69% 0 mm
13:15 12.1 °C 6.4 °C 1017.5 hPa NE 14.5 km/h 29 km/h 68% 0 mm
13:20 12.1 °C 6.8 °C 1017.5 hPa NE 12.9 km/h 29 km/h 70% 0 mm
13:25 12.2 °C 6.7 °C 1017.2 hPa NE 16.1 km/h 25.7 km/h 69% 0 mm
13:30 12.3 °C 7.2 °C 1016.8 hPa NE 9.7 km/h 22.5 km/h 71% 0 mm
13:35 12.2 °C 7.1 °C 1016.8 hPa NE 17.7 km/h 19.3 km/h 71% 0 mm
13:40 11.8 °C 6.7 °C 1016.8 hPa NE 8 km/h 22.5 km/h 71% 0 mm
13:45 12.2 °C 7.3 °C 1016.8 hPa NE 11.3 km/h 14.5 km/h 72% 0 mm
13:50 11.9 °C 6.8 °C 1017.2 hPa NE 9.7 km/h 20.9 km/h 71% 0 mm
13:55 11.9 °C 7.1 °C 1017.2 hPa NE 9.7 km/h 20.9 km/h 72% 0 mm
14:00 11.9 °C 6.8 °C 1016.8 hPa NE 9.7 km/h 24.1 km/h 71% 0 mm
14:05 11.9 °C 6.8 °C 1016.5 hPa NE 19.3 km/h 25.7 km/h 71% 0 mm
14:10 11.9 °C 6.8 °C 1016.5 hPa NE 16.1 km/h 22.5 km/h 71% 0 mm
14:15 11.8 °C 6.7 °C 1016.5 hPa NE 11.3 km/h 19.3 km/h 71% 0 mm
14:20 11.7 °C 6.6 °C 1016.5 hPa NE 12.9 km/h 24.1 km/h 71% 0 mm
14:25 12 °C 7.1 °C 1016.1 hPa NE 12.9 km/h 24.1 km/h 72% 0 mm
14:30 11.8 °C 6.9 °C 1016.1 hPa NE 11.3 km/h 27.4 km/h 72% 0 mm
14:35 11.9 °C 7.1 °C 1015.8 hPa NE 11.3 km/h 27.4 km/h 72% 0 mm
14:40 12.4 °C 7.1 °C 1015.8 hPa NE 11.3 km/h 25.7 km/h 70% 0 mm
14:45 12.6 °C 7.7 °C 1015.8 hPa NE 11.3 km/h 20.9 km/h 72% 0 mm
14:50 12.7 °C 7.4 °C 1015.8 hPa NNE 12.9 km/h 25.7 km/h 70% 0 mm
14:55 12.9 °C 7.8 °C 1015.8 hPa NE 8 km/h 22.5 km/h 71% 0 mm
15:00 13.2 °C 7.6 °C 1015.8 hPa NNE 12.9 km/h 24.1 km/h 69% 0 mm
15:05 12.9 °C 7.3 °C 1015.8 hPa NNE 9.7 km/h 29 km/h 69% 0 mm
15:10 12.9 °C 7.6 °C 1015.8 hPa NE 12.9 km/h 12.9 km/h 70% 0 mm
15:15 13.2 °C 7.8 °C 1015.5 hPa ENE 19.3 km/h 20.9 km/h 70% 0 mm
15:20 13.8 °C 8.4 °C 1015.8 hPa NE 11.3 km/h 20.9 km/h 70% 0 mm
15:25 13.8 °C 8.2 °C 1015.5 hPa NE 11.3 km/h 22.5 km/h 69% 0 mm
15:30 13.6 °C 8 °C 1015.1 hPa NE 12.9 km/h 27.4 km/h 69% 0 mm
15:35 13.3 °C 7.8 °C 1015.1 hPa NE 12.9 km/h 27.4 km/h 69% 0 mm
15:40 13.8 °C 8.4 °C 1015.1 hPa NE 17.7 km/h 20.9 km/h 70% 0 mm
15:45 13.6 °C 8 °C 1014.4 hPa NE 9.7 km/h 35.4 km/h 69% 0 mm
15:50 14.2 °C 8.6 °C 1014.8 hPa NE 14.5 km/h 35.4 km/h 69% 0 mm
15:55 14.1 °C 8.2 °C 1014.4 hPa NE 17.7 km/h 29 km/h 68% 0 mm
16:00 14.4 °C 8.6 °C 1014.4 hPa ENE 6.4 km/h 20.9 km/h 68% 0 mm
16:05 14.6 °C 8.7 °C 1014.1 hPa East 14.5 km/h 24.1 km/h 68% 0 mm
16:10 14.7 °C 8.8 °C 1014.1 hPa NE 14.5 km/h 27.4 km/h 68% 0 mm
16:15 15.2 °C 9.1 °C 1013.8 hPa NE 4.8 km/h 22.5 km/h 67% 0 mm
16:20 15.3 °C 9 °C 1013.8 hPa NE 12.9 km/h 22.5 km/h 66% 0 mm
16:25 15.3 °C 8.9 °C 1013.8 hPa ENE 6.4 km/h 27.4 km/h 66% 0 mm
16:30 15.4 °C 9.1 °C 1013.8 hPa NE 12.9 km/h 27.4 km/h 66% 0 mm
16:35 15.7 °C 9.4 °C 1013.4 hPa NE 11.3 km/h 22.5 km/h 66% 0 mm
16:40 16.1 °C 9.5 °C 1013.4 hPa NE 11.3 km/h 17.7 km/h 65% 0 mm
16:45 16.3 °C 9.5 °C 1013.1 hPa NE 8 km/h 20.9 km/h 64% 0 mm
16:50 16.6 °C 9.9 °C 1013.1 hPa ENE 11.3 km/h 20.9 km/h 65% 0 mm
16:55 16.9 °C 10.3 °C 1013.1 hPa ENE 9.7 km/h 17.7 km/h 65% 0 mm
17:00 16.7 °C 9.8 °C 1013.1 hPa ENE 12.9 km/h 20.9 km/h 64% 0 mm
17:05 17.1 °C 9.9 °C 1013.1 hPa NE 14.5 km/h 20.9 km/h 63% 0 mm
17:10 17.2 °C 10.1 °C 1013.1 hPa NE 6.4 km/h 19.3 km/h 63% 0 mm
17:15 17.5 °C 10.6 °C 1012.8 hPa ENE 14.5 km/h 17.7 km/h 64% 0 mm
17:20 17.7 °C 10.3 °C 1012.8 hPa NE 11.3 km/h 22.5 km/h 62% 0 mm
17:25 17.9 °C 10.7 °C 1012.8 hPa NE 11.3 km/h 22.5 km/h 63% 0 mm
17:30 17.9 °C 10.8 °C 1013.1 hPa ENE 3.2 km/h 17.7 km/h 63% 0 mm
17:35 18.1 °C 10.7 °C 1013.1 hPa NNE 6.4 km/h 22.5 km/h 62% 0 mm
17:40 18.1 °C 10.7 °C 1013.1 hPa ENE 16.1 km/h 19.3 km/h 62% 0 mm
17:45 18.1 °C 10.7 °C 1013.1 hPa ENE 4.8 km/h 17.7 km/h 62% 0 mm
17:50 18 °C 10.8 °C 1013.1 hPa NE 8 km/h 17.7 km/h 63% 0 mm
17:55 18 °C 11.1 °C 1013.1 hPa NE 6.4 km/h 14.5 km/h 64% 0 mm
18:00 17.9 °C 10.7 °C 1013.1 hPa NE 6.4 km/h 14.5 km/h 63% 0 mm
18:05 17.8 °C 10.9 °C 1013.1 hPa NE 1.6 km/h 16.1 km/h 64% 0 mm
18:10 17.6 °C 10.7 °C 1012.8 hPa NE 6.4 km/h 9.7 km/h 64% 0 mm
18:15 16.9 °C 10.3 °C 1012.8 hPa North 6.4 km/h 9.7 km/h 65% 0 mm
18:20 16.3 °C 9.9 °C 1012.8 hPa NNE 6.4 km/h 11.3 km/h 66% 0 mm
18:25 15.8 °C 9.7 °C 1012.4 hPa NNE 6.4 km/h 16.1 km/h 67% 0 mm
18:30 15.5 °C 9.4 °C 1012.4 hPa NE 9.7 km/h 16.1 km/h 67% 0 mm
18:35 15.1 °C 10.1 °C 1013.8 hPa NW 3.2 km/h 14.5 km/h 72% 0.51 mm
18:40 14.1 °C 9.9 °C 1014.4 hPa NNW 1.6 km/h 12.9 km/h 76% 1.52 mm
18:45 13.3 °C 10.1 °C 1014.1 hPa NNW 3.2 km/h 4.8 km/h 81% 6.1 mm
18:50 12.8 °C 10.2 °C 1013.4 hPa NNE 3.2 km/h 8 km/h 84% 6.86 mm
18:55 12.7 °C 10.2 °C 1013.4 hPa NNE 4.8 km/h 9.7 km/h 85% 6.86 mm
19:00 12.6 °C 10.3 °C 1013.8 hPa North 4.8 km/h 9.7 km/h 86% 6.86 mm
19:05 12.6 °C 10.3 °C 1013.4 hPa North 3.2 km/h 8 km/h 86% 6.86 mm
19:10 12.4 °C 10.2 °C 1013.1 hPa NE 6.4 km/h 11.3 km/h 86% 7.11 mm
19:15 12.3 °C 10.1 °C 1013.4 hPa NE 4.8 km/h 14.5 km/h 86% 7.11 mm
19:20 12.3 °C 10 °C 1013.4 hPa NE 6.4 km/h 16.1 km/h 86% 7.11 mm
19:25 12.2 °C 9.9 °C 1013.4 hPa ENE 11.3 km/h 17.7 km/h 86% 7.11 mm
19:30 12.2 °C 9.9 °C 1013.4 hPa NNE 6.4 km/h 16.1 km/h 86% 7.11 mm
19:35 12.1 °C 9.8 °C 1013.1 hPa NE 6.4 km/h 14.5 km/h 86% 6.6 mm
19:40 11.9 °C 9.6 °C 1013.1 hPa NNE 4.8 km/h 11.3 km/h 86% 5.59 mm
19:45 11.4 °C 9 °C 1013.4 hPa NNE 6.4 km/h 19.3 km/h 85% 1.02 mm
19:50 11.1 °C 8.6 °C 1013.4 hPa NNE 6.4 km/h 19.3 km/h 85% 0.25 mm
19:55 10.8 °C 8.3 °C 1013.4 hPa NNE 6.4 km/h 16.1 km/h 85% 0.25 mm
20:00 10.4 °C 8 °C 1013.4 hPa NNE 6.4 km/h 16.1 km/h 85% 0.25 mm
20:05 10.2 °C 7.8 °C 1013.4 hPa NNE 4.8 km/h 8 km/h 85% 0.25 mm
20:10 9.9 °C 7.7 °C 1013.4 hPa ENE 11.3 km/h 22.5 km/h 86% 0 mm
20:15 9.7 °C 7.4 °C 1013.4 hPa ENE 6.4 km/h 19.3 km/h 86% 0 mm
20:20 9.6 °C 7.3 °C 1013.4 hPa NE 8 km/h 19.3 km/h 86% 0 mm
20:25 9.3 °C 7.1 °C 1013.1 hPa NE 9.7 km/h 22.5 km/h 86% 0 mm
20:30 9.1 °C 6.8 °C 1013.1 hPa NE 11.3 km/h 24.1 km/h 86% 0 mm
20:35 8.8 °C 6.6 °C 1013.1 hPa NE 11.3 km/h 22.5 km/h 86% 0 mm
20:40 8.6 °C 6.6 °C 1013.1 hPa NE 12.9 km/h 22.5 km/h 87% 0 mm
20:45 8.4 °C 6.4 °C 1013.1 hPa NE 12.9 km/h 22.5 km/h 87% 0 mm
20:50 8.3 °C 6.3 °C 1012.8 hPa NE 8 km/h 24.1 km/h 87% 0 mm
20:55 8.2 °C 6.2 °C 1013.1 hPa East 9.7 km/h 24.1 km/h 87% 0 mm
21:00 8.1 °C 6.2 °C 1013.1 hPa NE 12.9 km/h 24.1 km/h 88% 0 mm
21:05 8.1 °C 6.2 °C 1012.8 hPa NE 11.3 km/h 24.1 km/h 88% 0 mm
21:10 8.1 °C 6.2 °C 1012.8 hPa NE 12.9 km/h 24.1 km/h 88% 0 mm
21:15 8.1 °C 6.2 °C 1012.8 hPa NE 12.9 km/h 20.9 km/h 88% 0 mm
21:20 8.1 °C 6.3 °C 1012.8 hPa NE 11.3 km/h 20.9 km/h 89% 0 mm
21:25 8.2 °C 6.4 °C 1012.4 hPa ENE 9.7 km/h 19.3 km/h 89% 0 mm
21:30 8.2 °C 6.4 °C 1012.8 hPa ENE 8 km/h 19.3 km/h 89% 0 mm
21:35 8.1 °C 6.3 °C 1012.4 hPa ENE 8 km/h 17.7 km/h 89% 0 mm
21:40 8.1 °C 6.2 °C 1012.4 hPa ENE 9.7 km/h 24.1 km/h 88% 0 mm
21:45 7.9 °C 6.2 °C 1012.4 hPa ENE 6.4 km/h 19.3 km/h 89% 0 mm
21:50 7.9 °C 6.2 °C 1012.1 hPa East 4.8 km/h 17.7 km/h 89% 0 mm
21:55 7.9 °C 6.2 °C 1012.4 hPa East 11.3 km/h 14.5 km/h 89% 0 mm
22:00 7.9 °C 6.2 °C 1012.1 hPa ENE 11.3 km/h 16.1 km/h 89% 0 mm
22:05 7.9 °C 6.2 °C 1012.1 hPa ENE 6.4 km/h 17.7 km/h 89% 0 mm
22:10 7.8 °C 6.1 °C 1011.7 hPa ENE 8 km/h 17.7 km/h 89% 0 mm
22:15 7.9 °C 6.2 °C 1011.7 hPa ENE 8 km/h 16.1 km/h 89% 0 mm
22:20 7.9 °C 6.2 °C 1011.7 hPa ENE 6.4 km/h 20.9 km/h 89% 0 mm
22:25 8 °C 6.3 °C 1011.7 hPa ENE 6.4 km/h 20.9 km/h 89% 0 mm
22:30 8.1 °C 6.3 °C 1011.7 hPa NE 8 km/h 14.5 km/h 89% 0 mm
22:35 8.2 °C 6.4 °C 1011.4 hPa East 8 km/h 12.9 km/h 89% 0 mm
22:40 8.2 °C 6.5 °C 1011.1 hPa ENE 6.4 km/h 12.9 km/h 89% 0 mm
22:45 8.3 °C 6.6 °C 1011.1 hPa ENE 4.8 km/h 12.9 km/h 89% 0 mm
22:50 8.3 °C 6.6 °C 1011.1 hPa ENE 4.8 km/h 12.9 km/h 89% 0 mm
22:55 8.6 °C 6.8 °C 1012.8 hPa NE 4.8 km/h 16.1 km/h 89% 0 mm
23:00 8.6 °C 6.7 °C 1013.4 hPa WNW 9.7 km/h 29 km/h 88% 0 mm
23:05 8.2 °C 6.3 °C 1013.4 hPa NW 4.8 km/h 32.2 km/h 88% 0.51 mm
23:10 7.8 °C 5.9 °C 1013.4 hPa NNW 11.3 km/h 32.2 km/h 88% 1.02 mm
23:15 7.5 °C 5.7 °C 1013.1 hPa North 3.2 km/h 19.3 km/h 88% 1.27 mm
23:20 7.4 °C 5.7 °C 1012.8 hPa NNE 9.7 km/h 14.5 km/h 89% 1.27 mm
23:25 7.3 °C 5.7 °C 1013.8 hPa WNW 11.3 km/h 17.7 km/h 89% 1.27 mm
23:30 7.3 °C 5.6 °C 1013.4 hPa NNW 8 km/h 25.7 km/h 89% 1.27 mm
23:35 7.2 °C 5.5 °C 1013.8 hPa North 11.3 km/h 20.9 km/h 89% 1.27 mm
23:40 7.1 °C 5.6 °C 1013.1 hPa North 9.7 km/h 22.5 km/h 90% 1.27 mm
23:45 7.3 °C 5.7 °C 1012.8 hPa NE 6.4 km/h 22.5 km/h 90% 1.27 mm
23:50 7.4 °C 5.9 °C 1012.4 hPa ENE 4.8 km/h 11.3 km/h 90% 1.27 mm
23:55 7.8 °C 6.4 °C 1012.4 hPa NE 3.2 km/h 8 km/h 91% 1.78 mm
Buffalo, New York, USA
Compliments of Weather Underground - 2.5 mb